Location: *
(49.1466°N, 1.6216°E)
Time: 05:42:04
(UTC+00:00)

Cosmos 2369 Rocket - Pass Details

Date: 25 September 2023
Orbit: 828 x 853 km, 71.0° (Epoch: 10 December)

Event Time Altitude Azimuth Distance (km) Brightness Sun altitude
Rises 21:17:30 0° 333° (NNW) 3,380 6.3 -32.4°
Reaches altitude 10° 21:20:01 10° 339° (NNW) 2,443 5.3 -32.7°
Enters shadow 21:23:39 36° 6° (N) 1,294 3.3 -33.1°
